Location: Borowce
(50.8255°N, 19.6209°E)
Time: 17:13:07
(UTC+00:00)

Cosmos 1408 Rocket - Pass Details

Date: 19 May 2025
Orbit: 594 x 625 km, 82.6° (Epoch: 20 June)

Event Time Altitude Azimuth Distance (km) Brightness Sun altitude
Rises 21:17:19 0° 354° (N) 2,888 8.5 -17.0°
Reaches altitude 10° 21:19:40 10° 2° (N) 1,973 7.2 -17.1°
Maximum altitude 21:23:49 42° 74° (ENE) 866 4.2 -17.3°
Enters shadow 21:25:30 29° 124° (SE) 1,124 4.4 -17.4°
